Dewpoint
70 71 71 72 72 72 71 70 68 68 68 67 66 65 65 65 61 62 64 61 61 62 62 63 63 64 64 62 62 63 62 63 62
72 72 72 72 72 72 71 69 69 68 67 67 66 66 66 61 63 63 63 63 66 64 64 64 62 63 63 62 62 62 61 63 63
72 72 72 72 71 71 71 70 69 68 67 66 67 66 65 61 62 63 62 65 62 63 65 64 63 62 62 62 63 62 62 62 61
72 72 72 72 72 72 71 71 69 68 68 68 67 66 65 60 61 62 61 66 61 63 62 63 63 62 62 62 62 61 62 63 61
71 70 71 72 72 72 71 71 70 69 69 68 67 65 64 60 59 61 62 67 64 62 63 63 63 62 62 63 62 63 62 62 62
70 69 69 71 71 71 71 70 70 69 68 68 66 64 61 58 59 60 65 67 63 62 62 62 62 63 62 63 63 63 62 61 61
69 68 68 70 70 70 71 70 70 68 66 65 65 62 60 58 58 60 66 66 64 63 63 63 63 63 63 63 63 62 62 61 60
68 68 68 68 67 69 70 69 68 66 65 64 62 61 59 58 58 61 66 67 65 64 64 64 64 64 63 63 63 62 62 61 60
67 67 67 68 68 68 68 68 67 66 65 63 62 60 59 58 57 61 65 67 66 64 65 65 65 64 64 63 62 62 62 61 61
67 67 67 68 68 68 68 68 67 65 64 63 62 60 59 57 57 60 63 65 67 66 65 65 65 65 64 64 63 63 62 61 61
68 68 67 68 68 68 67 66 66 66 65 64 61 60 58 56 56 60 61 64 66 67 65 65 65 65 65 64 64 63 63 63 62
67 67 68 68 68 68 67 67 66 66 65 64 63 60 58 56 56 59 60 62 63 66 67 65 65 65 65 65 64 64 64 64 64
57 65 66 68 68 68 67 67 66 65 64 64 62 61 59 57 55 59 59 60 61 63 66 66 67 66 65 65 65 65 66 66 66
51 56 64 66 67 68 67 66 66 65 64 63 62 60 58 56 54 58 59 59 60 60 62 64 65 66 67 66 65 65 67 66 66
49 50 58 64 65 66 67 66 65 65 64 63 62 61 59 56 55 55 58 59 60 60 60 61 62 63 66 66 65 65 67 66 67
45 47 49 58 60 64 65 65 64 64 64 63 62 61 60 56 55 55 55 58 59 60 60 60 61 61 63 65 66 66 65 66 67
43 44 46 48 52 59 63 64 63 63 64 62 60 58 58 58 57 55 54 55 57 59 59 60 60 60 60 61 63 65 65 64 65
43 41 41 43 51 54 59 62 62 60 61 62 58 56 55 57 58 56 55 55 55 56 57 59 59 59 60 60 60 61 63 64 64
45 45 44 44 47 52 56 61 62 61 58 62 62 56 55 54 52 55 56 56 55 55 55 56 57 59 59 59 58 58 61 63 64
44 46 46 44 45 47 53 58 61 60 59 59 58 60 55 54 52 51 53 55 56 56 56 56 56 56 57 58 58 58 60 62 64
Lifted_Index
-3 -3 -3 -4 -4 -3 -2 -1 0 1 2 2 3 3 4 5 5 5 5 5 5 5 5 5 5 4 4 5 5 5 5 5 5
-3 -3 -3 -4 -4 -3 -2 -1 -0 1 1 2 3 3 4 5 5 4 4 4 4 4 4 5 5 5 5 5 5 5 5 5 5
-3 -3 -3 -3 -4 -3 -3 -2 -1 0 1 2 2 3 4 5 4 4 5 4 4 4 4 4 5 5 5 5 5 5 5 5 5
-3 -3 -3 -3 -3 -3 -3 -2 -1 -0 0 1 2 3 4 4 4 5 5 5 5 5 5 5 5 5 5 5 5 5 5 4 5
-2 -2 -2 -3 -3 -3 -3 -2 -2 -1 -0 1 2 3 4 4 4 4 4 4 4 5 5 5 5 5 5 5 5 5 4 4 5
-2 -2 -2 -2 -3 -3 -3 -2 -2 -1 -0 0 2 3 4 4 4 4 3 3 4 4 5 5 5 5 5 5 5 5 5 5 5
-1 -1 -1 -2 -2 -2 -2 -2 -2 -1 0 1 2 3 3 3 3 3 3 3 3 4 4 4 4 4 4 5 5 5 5 5 5
-1 -1 -1 -1 -2 -2 -2 -2 -1 -0 1 2 3 3 3 3 3 3 2 2 2 3 3 4 4 4 4 5 5 5 5 5 6
-1 -1 -1 -1 -1 -1 -1 -1 -1 -0 1 2 3 4 4 3 3 3 2 1 2 2 3 3 3 3 4 4 5 5 5 5 6
-1 -1 -1 -1 -1 -1 -1 -1 -0 0 1 1 2 4 4 4 3 3 2 1 1 1 2 2 3 3 3 4 4 4 5 5 5
-1 -1 -1 -1 -1 -1 -1 -1 -0 0 0 1 2 2 3 4 4 3 2 2 1 1 1 1 2 2 3 3 3 4 4 4 4
1 0 -1 -1 -2 -1 -1 -1 -0 -0 0 0 1 2 2 3 4 3 3 2 2 1 1 1 1 1 2 2 2 3 3 3 3
5 3 0 -1 -1 -2 -1 -1 -1 -1 -0 -0 0 1 2 2 3 3 3 3 2 2 1 0 0 1 1 1 1 1 1 2 2
9 7 3 0 -1 -1 -1 -1 -1 -1 -1 -0 -0 1 1 2 2 3 3 3 3 3 2 1 1 1 0 0 0 0 0 1 1
11 10 7 3 1 -0 -1 -1 -1 -1 -1 -1 -0 0 1 1 2 2 3 3 3 3 3 3 2 2 1 0 0 0 -0 0 0
12 12 10 7 4 2 0 -0 -0 -1 -1 -1 -0 -0 0 1 1 1 2 2 3 3 3 3 3 3 2 2 1 0 0 0 0
13 12 11 10 7 4 2 0 0 0 -0 -1 -0 -0 0 0 1 1 1 2 2 3 3 3 3 3 3 3 2 1 1 1 1
13 13 12 11 8 6 3 1 0 0 0 -0 0 1 1 1 1 1 1 1 2 2 3 3 3 3 3 3 3 3 2 2 2
12 12 12 11 9 7 4 2 1 0 1 0 0 1 1 1 1 1 2 2 2 2 2 2 3 3 3 3 4 4 3 3 2
12 11 11 10 9 8 5 2 1 0 1 1 0 1 1 2 2 2 2 2 2 2 2 2 2 3 3 3 4 4 4 3 2